TIANTONG-1 3

Last updated on Mon Jun 22 2026 00:03:07 GMT+0000 (Coordinated Universal Time)

1 47321U 21003A 26172.54885609 -.00000156 00000+0 00000+0 0 9997 2 47321 1.7523 339.6373 0003142 114.2534 94.9493 1.00269921 20001
UTC large
Height (km)
Speed (km/s)
/
Latitude / Longitude
Inclination (degrees)
Orbital Period (minutes)
Azimuth
Elevation
Range (km)
Doppler Factor

Next 0 passes for location: London (51.5072 / 0.1276)

No passes found over London.
TIANTONG-1 3